Location: Fontevrault
(47.1823°N, 0.0493°E)
Time: 02:53:15
(UTC+00:00)

Meteor 1-21 Rocket - Pass Details

Date: 26 October 2021
Orbit: 834 x 907 km, 81.2° (Epoch: 07 December)

Event Time Altitude Azimuth Distance (km) Brightness Sun altitude
Rises 17:13:29 0° 348° (NNW) 3,521 7.4 -4.2°
Reaches altitude 10° 17:15:56 10° 348° (NNW) 2,584 6.7 -4.6°
Maximum altitude 17:21:51 85° 260° (W) 915 4.5 -5.6°
Drops below altitude 10° 17:27:46 10° 173° (S) 2,583 6.8 -6.6°
Sets 17:30:13 0° 173° (S) 3,519 7.5 -7.0°
